Powrót do katalogu

STARLINK-37075

AktywnyŁącznośćVLEO
NORAD 68255·PAYLOAD·🇺🇸 United States

Wystrzelony Mar 17, 2026 z Vandenberg Space Force Base

Loading…

Następne Przeloty (najbliższe 24 godziny)

TLE

ŚwieżeSource: CelesTrak SupGP

Epoka: Sep 14, 2026, 21:16 UTC

1 68255C 26054Z   26257.88659722 -.00056236  00000+0 -16616-2 0  2574
2 68255  53.1568 128.1066 0001215  81.9415 111.3304 15.34417521    14

Śledź STARLINK-37075 w czasie rzeczywistym z AllMySat

Download on the App Store